sat.trackr.live / text

‹ back to catalog

GLOBAL-32

NORAD 64231 · 2025-118B

PAYLOAD ACTIVE UNKNOWN

§ Identity

Operator
Country
US
Launch date
2025-06-02
Launch site
RLLB
Launch vehicle
Mass (kg)
RCS (m²)

External: N2YO · Heavens-Above · Gunter

§ Orbital elements

Epoch: 2026-09-21T01:10:33.846240Z

Period
93.60 min
Inclination
58.9916°
Eccentricity
0.0012102
Mean motion
15.38495412 rev/d
Perigee alt
442.3 km
Apogee alt
458.8 km
Semi-major
6,828.7 km
B*
6.7185e-5
RAAN
105.0569°
Arg perigee
78.3614°
Mean anomaly
281.8819°
Rev number
7,299

§ Raw data

GLOBAL-321 64231U 25118B   26264.04900285  .00002233  00000+0  67185-4 0  99912 64231  58.9916 105.0569 0012102  78.3614 281.8819 15.38495412 72993

JSON: /api/v1/satellites/64231 · /tle

For live sub-satellite position, see the globe view (requires WebGL).

§ Visibility from observer

Set your observer location to see the next 7 days of passes ≥ 10°. The values pass through the URL so the page stays shareable.

No JS? Fill the form by hand. The geolocation button needs JavaScript.

§ Radio — SatNOGS DB

ModeDescriptionDownlinkUplink
FM Mode U - Transmitter 401.500 MHz

1 transmitter · refreshed weekly from db.satnogs.org